Location: Schommer Observatory
(40.5200°N, 74.4500°W)
Time: 05:08:01
(UTC-04:00)

Tiangong 2 - Visible Passes

Search period start: 30 April 2017 00:00
Search period end: 10 May 2017 00:00
Orbit: 380 x 389 km, 42.8° (Epoch: 28 April)

Date Brightness Start Highest point End Pass type
(mag) Time Alt. Az. Time Alt. Az. Time Alt. Az.
06 May 2.6 05:19:28 10° SSW 05:22:12 28° SSE 05:24:57 10° E visible
07 May 3.2 04:21:54 15° SSE 04:22:51 16° SE 04:24:55 10° ESE visible
08 May 1.6 04:57:14 14° SW 04:59:45 47° SSE 05:02:48 10° E visible
09 May 2.4 04:00:18 27° SSE 04:00:19 27° SSE 04:03:04 10° E visible
